Regional Weather Roundup
Issued by NWS

Home | Current Version | Previous Version | Text Only | Print | Product List | Glossary Off
Versions: 1 2 3 4 5 6 7 8 9 10 11 12 13 14 15 16 17 18 19 20 21 22 23 24 25 26 27 28 29 30 31 32 33 34 35 36 37 38 39 40 41 42 43 44 45 46 47 48 49 50

000
ASUS43 KDTX 181701
RWRMI
MICHIGAN HOURLY REGIONAL WEATHER ROUNDUP
NATIONAL WEATHER SERVICE DETROIT/PONTIAC MI
1200 PM EST THU JAN 18 2018

NOTE: "FAIR" INDICATES FEW OR NO CLOUDS BELOW 12,000 FEET WITH NO
SIGNIFICANT WEATHER AND/OR OBSTRUCTION TO VISIBILITY.

MIZ047>049-052>055-059>063-066>070-074>076-081>083-181800-
SOUTHEAST LOWER MICHIGAN

CITY           SKY/WX    TMP DP  RH WIND       PRES   REMARKS
ADRIAN         FAIR      21  11  65 W12       30.11F WCI   9
ALMA           CLOUDY    29  23  79 SW13      30.00F WCI  18
ANN ARBOR      FAIR      22  13  68 S10       30.08F WCI  11
BAD AXE        FAIR      26  19  75 SW14      29.98F WCI  14
CARO           CLOUDY    25  19  79 SW15G24   29.99F WCI  13
DETROIT CITY   FAIR      22  12  65 W15       30.08F WCI   9
DETROIT        FAIR      23  13  65 SW15      30.10F WCI  10
FLINT          CLOUDY    22  16  78 SW14      30.04F WCI   9
GROSSE ILE     FAIR      23  13  64 W13G18    30.10F WCI  11
HILLSDALE      FAIR      23  12  63 SW12      30.06F WCI  12
HOWELL         FAIR      23  16  74 SW10G16   30.04F WCI  12

CITY           SKY/WX    TMP DP  RH WIND       PRES   REMARKS
JACKSON        FAIR      21  12  68 SW14      30.06F WCI   8
LAMBERTVILLE   FAIR      22  11  64 W16G22    30.13S WCI   8
LANSING        CLOUDY    23  17  78 SW14      30.05S WCI  11
LAPEER         CLOUDY    25  18  74 W16       30.02F WCI  12
MASON          FAIR      24  12  61 SW6       30.06S WCI  17
MONROE         FAIR      21  10  62 SW16      30.11F WCI   7
MT. CLEMENS    MOSUNNY   24  11  58 SW13      30.03F WCI  12
PONTIAC        FAIR      23  16  74 W14       30.03F WCI  11
PORT HOPE        N/A     25  17  72 SW14      29.96F WCI  13
PORT HURON     PTSUNNY   23  14  68 SW7       30.05F WCI  15
TRI CITIES     CLOUDY    28  22  78 SW20      29.99F WCI  15
MIDLAND        FAIR      30  22  71 SW14      29.97F WCI  19
TROY           FAIR      26  15  63 SW9G17    30.07F WCI  17
SAGINAW HB     CLOUDY    27  21  80 SW20      30.00S WCI  13
$$
MIZ043>046-050>051-056>058-064>065-071>073-077>080-181800-
SOUTHWEST LOWER MICHIGAN

CITY           SKY/WX    TMP DP  RH WIND       PRES   REMARKS
BATTLE CREEK   FAIR      21  13  71 SW15      30.07S WCI   8
BENTON HARBOR  FAIR      24  14  65 SW16G26   30.11R WCI  11
BIG RAPIDS     CLOUDY    28  21  74 SW14G23   29.97R WCI  17
COLDWATER      FAIR      22  13  67 SW13      30.08F WCI  10
FREMONT        CLOUDY    29  21  70 SW17G23   30.01R WCI  17
HOLLAND        CLOUDY    28  21  75 SW21G29   30.07R WCI  15
GRAND RAPIDS   CLOUDY    27  20  75 SW21      30.04S WCI  13
IONIA          CLOUDY    27  21  78 SW17G23   30.02F WCI  14
KALAMAZOO      FAIR      23  12  62 SW14      30.09S WCI  11
LUDINGTON      CLOUDY    29  26  86 S16G23    29.96F WCI  18
MARSHALL       FAIR      22  11  63 SW12      30.07S WCI  11
MOUNT PLEASANT CLOUDY    30  22  70 SW17G23   29.97S WCI  18
MUSKEGON       CLOUDY    30  22  72 SW16G25   30.05R WCI  19
SOUTH HAVEN    PTSUNNY   27  19  72 SW10G23   30.09S WCI  17
$$
MIZ016>042-181800-
NORTHERN LOWER MICHIGAN

CITY           SKY/WX    TMP DP  RH WIND       PRES   REMARKS
ALPENA         CLOUDY    25  20  81 SW9       29.91F WCI  15
BEAVER ISLAND  FAIR      31  26  80 SW10G18   29.83F WCI  22
BELLAIRE       PTSUNNY   30  25  82 SW12G17   29.89S WCI  21
CADILLAC       FAIR      26  22  85 SW14G24   29.89F WCI  14
CHARLEVOIX     CLOUDY    31  26  80 S8        29.89F WCI  23
FRANKFORT      CLOUDY    32  26  78 SW13G20   29.91F WCI  22
GAYLORD        FAIR      25  22  88 SW12      29.84F WCI  14
GRAYLING       FAIR      28  20  73 SW8       29.87F WCI  20
HARBOR SPRINGS CLOUDY    30  25  80 SW12G18   29.86F WCI  21
HOUGHTON LAKE  FAIR      26  20  77 SW10      29.91F WCI  16
MANISTEE       PTSUNNY   31  25  78 SW14      29.93F WCI  21
OSCODA         FAIR      27  18  69 SW8       29.93F WCI  18
PELLSTON       CLOUDY    31  25  78 SW8       29.85F WCI  23
ROGERS CITY    CLOUDY    27  20  76 S6        29.88F WCI  20
TRAVERSE CITY  PTSUNNY   31  24  75 SW13G20   29.87F WCI  21
$$
MIZ007>008-015-181800-
EASTERN UPPER MICHIGAN

CITY           SKY/WX    TMP DP  RH WIND       PRES   REMARKS
KINROSS        CLOUDY    30  20  66 SW8       29.83F WCI  22
MACKINAC ISLAN CLOUDY    29  23  81 SW7       29.83F WCI  21
NEWBERRY       FAIR      24  18  77 S5        29.80F WCI  18
MUNISING         N/A     24  18  77 S10       29.76F WCI  14
$$
MIZ004>006-011>014-085-181800-
CENTRAL UPPER MICHIGAN

CITY           SKY/WX    TMP DP  RH WIND       PRES   REMARKS
MANISTIQUE     FAIR      26  22  84 S8        29.81F WCI  18
ESCANABA       PTSUNNY   24  19  81 S8        29.82F WCI  15
MENOMINEE      FAIR      26  18  71 SW8       29.85F WCI  18
SAWYER-GWINN   CLOUDY    23  18  80 S9        29.71F WCI  13
$$
MIZ001>003-009>011-084-181800-
WESTERN UPPER MICHIGAN

CITY           SKY/WX    TMP DP  RH WIND       PRES   REMARKS
IRON MOUNTAIN  CLOUDY    23  17  78 SE3       29.74F
HOUGHTON       LGT SNOW  26  17  68 W3        29.68R
COPPER HARBOR    N/A     30  21  69 CALM      29.71S
IRONWOOD       CLOUDY    31  22  69 W15       29.74R WCI  20
$$

ABBREVIATIONS USED IN REMARKS
   TC - TEMPERATURE IN CELSIUS
  WCI - WIND CHILL INDEX
   HX - HEAT INDEX
  VSB - VISIBILITY





USA.gov is the U.S. government's official web portal to all federal, state and local government web resources and services.